Find Starlink 32921

NORAD ID: 62920 Int'l Des: 2025-027 Owner: SPXS Country: US Constellation: starlink operational
LEOCIRCULAR

リアルタイム位置

3D地球を読み込み中...

Starlink 32921について

説明を読み込み中...

次回通過

Passes for default location (London). Set your location on the main map for personalized predictions.

高度履歴

Loading altitude history...

軌道要素

1 62920U 25027P 26124.20145780 .00014865 00000-0 54839-3 0 9993
2 62920 43.0003 175.2405 0001137 236.7960 123.2783 15.27592933 70032
Epoch: May 4, 2026 • Age: 37 hours

現在のステータス

高度 482.1 km
速度 7.63 km/s
衛星直下点 18.13°N, 161.36°W
打ち上げ日 Feb 8, 2025
運用期間 1.2 years
タイプ internet

技術仕様

分類 Payload
質量 730.00 kg
乾燥質量 700.00 kg
総質量 730.00 kg
長さ 0.30 m
直径 4.10 m
スパン 29.00 m
形状 Box + pan
製造者 SPXS
バスタイプ Starlink V2M
フェーズステータス In Orbit
所有者/国 SPXS/US

Most Searched